Location: Street
(51.1247°N, 2.7429°W)
Time: 06:43:20
(UTC+00:00)

SR - Pass Details

Date: 05 December 2020
Orbit: 575 x 880 km, 66.7° (Epoch: 25 January)

Event Time Altitude Azimuth Distance (km) Brightness Sun altitude
Rises 19:41:44 0° 274° (W) 2,919 ? -32.9°
Reaches altitude 10° 19:44:35 10° 294° (WNW) 2,064 ? -33.3°
Enters shadow 19:47:06 18° 327° (NNW) 1,653 ? -33.7°
Maximum altitude 19:47:51 18° 339° (NNW) 1,638 - -33.8°
Drops below altitude 10° 19:51:18 10° 23° (NNE) 2,203 - -34.3°
Sets 19:54:28 0° 41° (NE) 3,194 - -34.8°
